THY7PY LTAC-LTCN

Flight info

Callsign THY7PY
Flight time 0h 46m
Altitude 31000
Route YUCEL1B/21R YUCEL UL605 POGEN
Aircraft B738/M-SDE2E3FGHIRWXY/LB1

Departure

Time 2026-05-06 15:41
Airport Esenboğa International Airport (LTAC)

Arrival

Time 2026-05-06 16:28
Airport Kahramanmaraş Airport (LTCN)
Time Latitude Longitude Altitude Speed Heading
2026-05-06 15:10 40.11657 32.99231 3131 ft 0 kts 156°
2026-05-06 15:25 40.11666 32.99225 3130 ft 2 kts 156°
2026-05-06 15:26 40.11680 32.99217 3130 ft 2 kts 156°
2026-05-06 15:26 40.11694 32.99209 3130 ft 2 kts 156°
2026-05-06 15:26 40.11707 32.99202 3130 ft 0 kts 156°
2026-05-06 15:26 40.11714 32.99197 3130 ft 1 kts 122°
2026-05-06 15:27 40.11716 32.99182 3130 ft 0 kts 71°
2026-05-06 15:27 40.11713 32.99175 3129 ft 1 kts 65°
2026-05-06 15:27 40.11713 32.99174 3129 ft 0 kts 66°
2026-05-06 15:32 40.11718 32.99185 3130 ft 1 kts 51°
2026-05-06 15:32 40.11724 32.99185 3130 ft 1 kts 342°
2026-05-06 15:32 40.11747 32.99150 3129 ft 8 kts 305°
2026-05-06 15:33 40.11776 32.99087 3128 ft 5 kts 301°
2026-05-06 15:33 40.11806 32.99038 3127 ft 9 kts 327°
2026-05-06 15:33 40.11873 32.99060 3127 ft 11 kts 34°
2026-05-06 15:33 40.11939 32.99121 3128 ft 12 kts 38°
2026-05-06 15:34 40.12014 32.99193 3130 ft 13 kts 36°
2026-05-06 15:34 40.12092 32.99267 3129 ft 15 kts 36°
2026-05-06 15:34 40.12170 32.99341 3130 ft 13 kts 35°
2026-05-06 15:34 40.12239 32.99407 3132 ft 12 kts 37°
2026-05-06 15:35 40.12319 32.99485 3133 ft 16 kts 36°
2026-05-06 15:35 40.12403 32.99567 3135 ft 14 kts 36°
2026-05-06 15:35 40.12488 32.99647 3136 ft 15 kts 35°
2026-05-06 15:35 40.12574 32.99727 3136 ft 15 kts 34°
2026-05-06 15:36 40.12665 32.99813 3135 ft 16 kts 36°
2026-05-06 15:36 40.12756 32.99903 3135 ft 17 kts 36°
2026-05-06 15:36 40.12857 32.99997 3135 ft 17 kts 35°
2026-05-06 15:36 40.12954 33.00090 3139 ft 16 kts 36°
2026-05-06 15:37 40.13038 33.00171 3142 ft 16 kts 36°
2026-05-06 15:37 40.13146 33.00273 3140 ft 20 kts 36°
2026-05-06 15:37 40.13265 33.00388 3140 ft 22 kts 36°
2026-05-06 15:37 40.13389 33.00506 3139 ft 21 kts 35°
2026-05-06 15:38 40.13509 33.00621 3139 ft 23 kts 36°
2026-05-06 15:38 40.13642 33.00745 3139 ft 23 kts 35°
2026-05-06 15:38 40.13772 33.00871 3140 ft 22 kts 34°
2026-05-06 15:38 40.13885 33.00981 3141 ft 18 kts 37°
2026-05-06 15:39 40.13983 33.01064 3140 ft 13 kts 15°
2026-05-06 15:39 40.14064 33.01048 3140 ft 11 kts 326°
2026-05-06 15:39 40.14102 33.00957 3138 ft 12 kts 284°
2026-05-06 15:39 40.14151 33.00853 3136 ft 14 kts 308°
2026-05-06 15:40 40.14209 33.00746 3134 ft 14 kts 298°
2026-05-06 15:40 40.14188 33.00660 3132 ft 10 kts 213°
2026-05-06 15:40 40.14091 33.00570 3132 ft 39 kts 216°
2026-05-06 15:40 40.13671 33.00168 3133 ft 108 kts 217°
2026-05-06 15:41 40.12897 32.99433 3124 ft 167 kts 216°
2026-05-06 15:41 40.11840 32.98425 3394 ft 195 kts 219°
2026-05-06 15:41 40.10797 32.97427 4356 ft 187 kts 218°
2026-05-06 15:41 40.09738 32.96436 4987 ft 193 kts 218°
2026-05-06 15:42 40.08567 32.95332 5166 ft 222 kts 218°
2026-05-06 15:42 40.07265 32.94103 5611 ft 240 kts 218°
2026-05-06 15:42 40.05904 32.92819 6416 ft 244 kts 217°
2026-05-06 15:42 40.04571 32.91561 7231 ft 246 kts 217°
2026-05-06 15:43 40.03196 32.90262 8060 ft 248 kts 217°
2026-05-06 15:43 40.01744 32.89086 8848 ft 251 kts 202°
2026-05-06 15:43 40.00007 32.88825 9604 ft 259 kts 172°
2026-05-06 15:43 39.98328 32.89798 9995 ft 282 kts 148°
2026-05-06 15:44 39.96733 32.91322 10499 ft 296 kts 146°
2026-05-06 15:44 39.95014 32.92948 10598 ft 322 kts 147°
2026-05-06 15:44 39.93121 32.94684 11000 ft 337 kts 147°
2026-05-06 15:44 39.91171 32.96325 11809 ft 338 kts 153°
2026-05-06 15:45 39.89026 32.97455 12508 ft 340 kts 168°
2026-05-06 15:45 39.86694 32.97718 13272 ft 340 kts 182°
2026-05-06 15:45 39.84345 32.97557 13998 ft 343 kts 184°
2026-05-06 15:45 39.81933 32.97356 14673 ft 347 kts 181°
2026-05-06 15:46 39.79547 32.97689 15317 ft 352 kts 165°
2026-05-06 15:46 39.77393 32.99176 15966 ft 360 kts 141°
2026-05-06 15:46 39.75800 33.01710 16662 ft 365 kts 126°
2026-05-06 15:46 39.74441 33.04480 17184 ft 372 kts 125°
2026-05-06 15:47 39.73052 33.07320 17825 ft 374 kts 125°
2026-05-06 15:47 39.71635 33.10173 18415 ft 377 kts 125°
2026-05-06 15:47 39.70197 33.13042 18996 ft 380 kts 126°
2026-05-06 15:47 39.68761 33.15893 19529 ft 384 kts 126°
2026-05-06 15:48 39.67279 33.18821 20069 ft 387 kts 126°
2026-05-06 15:48 39.65800 33.21737 20588 ft 391 kts 126°
2026-05-06 15:48 39.64315 33.24660 21090 ft 395 kts 126°
2026-05-06 15:48 39.62824 33.27588 21572 ft 398 kts 126°
2026-05-06 15:49 39.61299 33.30580 22053 ft 402 kts 126°
2026-05-06 15:49 39.59742 33.33631 22510 ft 405 kts 126°
2026-05-06 15:49 39.58240 33.36729 22958 ft 410 kts 123°
2026-05-06 15:49 39.56918 33.40013 23397 ft 417 kts 117°
2026-05-06 15:50 39.55820 33.43494 23847 ft 421 kts 114°
2026-05-06 15:50 39.54776 33.47016 24237 ft 425 kts 114°
2026-05-06 15:50 39.53734 33.50584 24661 ft 428 kts 114°
2026-05-06 15:50 39.52681 33.54208 25052 ft 432 kts 114°
2026-05-06 15:51 39.51625 33.57849 25422 ft 436 kts 114°
2026-05-06 15:51 39.50556 33.61532 25829 ft 439 kts 114°
2026-05-06 15:51 39.49494 33.65196 26193 ft 442 kts 114°
2026-05-06 15:51 39.48397 33.68982 26558 ft 445 kts 114°
2026-05-06 15:52 39.47308 33.72736 26920 ft 448 kts 114°
2026-05-06 15:52 39.46180 33.76515 27261 ft 450 kts 118°
2026-05-06 15:52 39.44612 33.79967 27557 ft 447 kts 131°
2026-05-06 15:52 39.42696 33.83040 28028 ft 445 kts 134°
2026-05-06 15:53 39.40667 33.86138 28158 ft 453 kts 134°
2026-05-06 15:53 39.38662 33.89201 28668 ft 450 kts 134°
2026-05-06 15:53 39.36639 33.92301 28931 ft 455 kts 134°
2026-05-06 15:53 39.34593 33.95437 29110 ft 461 kts 134°
2026-05-06 15:54 39.32533 33.98602 29498 ft 461 kts 134°
2026-05-06 15:54 39.30476 34.01780 29796 ft 464 kts 134°
2026-05-06 15:54 39.28471 34.04885 30174 ft 464 kts 134°
2026-05-06 15:54 39.26416 34.08066 30551 ft 464 kts 134°
2026-05-06 15:55 39.24359 34.11248 30929 ft 464 kts 134°
2026-05-06 15:55 39.22292 34.14444 31113 ft 466 kts 134°
2026-05-06 15:55 39.18170 34.20806 31102 ft 462 kts 134°
2026-05-06 15:56 39.14115 34.27231 31101 ft 462 kts 129°
2026-05-06 15:56 39.10717 34.34208 31102 ft 466 kts 127°
2026-05-06 15:57 39.06704 34.40564 31104 ft 462 kts 135°
2026-05-06 15:57 39.02505 34.46775 31100 ft 462 kts 134°
2026-05-06 15:58 38.98378 34.52990 31101 ft 460 kts 133°
2026-05-06 15:58 38.94290 34.59202 31101 ft 457 kts 133°
2026-05-06 15:59 38.90208 34.65429 31101 ft 455 kts 133°
2026-05-06 15:59 38.86162 34.71606 31101 ft 455 kts 133°
2026-05-06 16:00 38.82116 34.77791 31101 ft 454 kts 133°
2026-05-06 16:00 38.78119 34.83895 31101 ft 455 kts 133°
2026-05-06 16:01 38.74096 34.90028 31101 ft 455 kts 133°
2026-05-06 16:01 38.70087 34.96127 31100 ft 454 kts 133°
2026-05-06 16:02 38.66059 35.02243 31100 ft 454 kts 134°
2026-05-06 16:02 38.61984 35.08414 31101 ft 456 kts 134°
2026-05-06 16:03 38.57923 35.14551 31100 ft 454 kts 134°
2026-05-06 16:03 38.53852 35.20690 31101 ft 452 kts 134°
2026-05-06 16:04 38.49783 35.26751 31102 ft 452 kts 135°
2026-05-06 16:04 38.45635 35.32796 31101 ft 455 kts 134°
2026-05-06 16:05 38.41488 35.38841 31100 ft 454 kts 134°
2026-05-06 16:05 38.37346 35.44877 31101 ft 454 kts 134°
2026-05-06 16:06 38.33245 35.50842 31100 ft 452 kts 134°
2026-05-06 16:06 38.29120 35.56829 31101 ft 452 kts 134°
2026-05-06 16:07 38.24960 35.62856 31101 ft 454 kts 134°
2026-05-06 16:07 38.20837 35.68822 31099 ft 453 kts 135°
2026-05-06 16:08 38.16685 35.74818 31100 ft 452 kts 135°
2026-05-06 16:08 38.12554 35.80774 31101 ft 452 kts 135°
2026-05-06 16:09 38.08404 35.86744 31101 ft 453 kts 135°
2026-05-06 16:09 38.04249 35.92715 30896 ft 447 kts 135°
2026-05-06 16:10 38.02196 35.95661 30152 ft 448 kts 135°
2026-05-06 16:10 38.00145 35.98595 29331 ft 449 kts 135°
2026-05-06 16:10 37.98081 36.01549 28574 ft 448 kts 135°
2026-05-06 16:10 37.96250 36.04166 27886 ft 448 kts 135°
2026-05-06 16:11 37.94030 36.07340 27062 ft 446 kts 135°
2026-05-06 16:11 37.92017 36.10215 26550 ft 438 kts 135°
2026-05-06 16:11 37.90011 36.13076 25939 ft 434 kts 135°
2026-05-06 16:11 37.88016 36.15921 25323 ft 429 kts 134°
2026-05-06 16:12 37.86058 36.18711 24715 ft 425 kts 134°
2026-05-06 16:12 37.84096 36.21500 24108 ft 420 kts 134°
2026-05-06 16:12 37.82190 36.24212 23523 ft 416 kts 134°
2026-05-06 16:12 37.80286 36.26929 22927 ft 412 kts 134°
2026-05-06 16:13 37.78407 36.29606 22341 ft 407 kts 134°
2026-05-06 16:13 37.76529 36.32278 21756 ft 403 kts 134°
2026-05-06 16:13 37.74704 36.34874 21180 ft 399 kts 134°
2026-05-06 16:13 37.72863 36.37488 20600 ft 395 kts 134°
2026-05-06 16:14 37.71067 36.40038 20033 ft 391 kts 134°
2026-05-06 16:14 37.69353 36.42470 19481 ft 387 kts 134°
2026-05-06 16:14 37.67526 36.45059 18890 ft 384 kts 134°
2026-05-06 16:14 37.65767 36.47548 18328 ft 380 kts 134°
2026-05-06 16:15 37.64020 36.50021 17754 ft 377 kts 134°
2026-05-06 16:15 37.62283 36.52476 17183 ft 373 kts 134°
2026-05-06 16:15 37.60567 36.54900 16626 ft 370 kts 133°
2026-05-06 16:15 37.58886 36.57274 16074 ft 366 kts 133°
2026-05-06 16:16 37.57191 36.59665 15489 ft 364 kts 133°
2026-05-06 16:16 37.55537 36.61996 14931 ft 361 kts 133°
2026-05-06 16:16 37.53880 36.64330 14366 ft 358 kts 133°
2026-05-06 16:16 37.52265 36.66669 13821 ft 355 kts 130°
2026-05-06 16:17 37.50871 36.69215 13269 ft 354 kts 122°
2026-05-06 16:17 37.49850 36.72024 12710 ft 353 kts 110°
2026-05-06 16:17 37.49181 36.74976 12160 ft 351 kts 106°
2026-05-06 16:17 37.48606 36.77940 11596 ft 349 kts 105°
2026-05-06 16:18 37.48041 36.80884 11050 ft 346 kts 105°
2026-05-06 16:18 37.47481 36.83775 10684 ft 337 kts 105°
2026-05-06 16:18 37.46944 36.86543 10541 ft 312 kts 105°
2026-05-06 16:18 37.46435 36.89145 10446 ft 312 kts 105°
2026-05-06 16:19 37.45915 36.91787 10271 ft 307 kts 105°
2026-05-06 16:19 37.45417 36.94326 10132 ft 286 kts 106°
2026-05-06 16:19 37.44951 36.96692 9856 ft 278 kts 106°
2026-05-06 16:19 37.44646 36.99083 9531 ft 279 kts 91°
2026-05-06 16:20 37.45006 37.01486 9192 ft 280 kts 67°
2026-05-06 16:20 37.45892 37.03670 8850 ft 280 kts 62°
2026-05-06 16:20 37.46832 37.05819 8472 ft 282 kts 62°
2026-05-06 16:20 37.47758 37.07957 8116 ft 282 kts 62°
2026-05-06 16:21 37.48691 37.10133 7753 ft 282 kts 62°
2026-05-06 16:21 37.49617 37.12303 7390 ft 283 kts 62°
2026-05-06 16:21 37.50555 37.14509 7029 ft 282 kts 62°
2026-05-06 16:21 37.51470 37.16663 6758 ft 279 kts 61°
2026-05-06 16:22 37.52378 37.18801 6531 ft 273 kts 61°
2026-05-06 16:22 37.53301 37.20798 6444 ft 260 kts 51°
2026-05-06 16:22 37.54628 37.22226 6361 ft 249 kts 22°
2026-05-06 16:22 37.56258 37.22583 6151 ft 235 kts 347°
2026-05-06 16:23 37.57613 37.21658 5970 ft 217 kts 306°
2026-05-06 16:23 37.58060 37.19964 5950 ft 200 kts 262°
2026-05-06 16:23 37.57623 37.18322 5920 ft 200 kts 246°
2026-05-06 16:23 37.57034 37.16741 5688 ft 196 kts 245°
2026-05-06 16:24 37.56470 37.15256 5601 ft 181 kts 243°
2026-05-06 16:24 37.55997 37.13811 5564 ft 175 kts 258°
2026-05-06 16:24 37.55790 37.12299 5175 ft 177 kts 262°
2026-05-06 16:24 37.55604 37.10797 4822 ft 166 kts 262°
2026-05-06 16:25 37.55431 37.09414 4330 ft 161 kts 262°
2026-05-06 16:25 37.55323 37.08063 4101 ft 150 kts 266°
2026-05-06 16:25 37.55283 37.06726 3807 ft 156 kts 274°
2026-05-06 16:25 37.55364 37.05393 3448 ft 150 kts 274°
2026-05-06 16:26 37.55362 37.04094 3139 ft 150 kts 266°
2026-05-06 16:26 37.55268 37.02813 2991 ft 144 kts 265°
2026-05-06 16:26 37.55103 37.01574 2836 ft 144 kts 261°
2026-05-06 16:26 37.54884 37.00347 2561 ft 146 kts 259°
2026-05-06 16:27 37.54660 36.99108 2268 ft 145 kts 259°
2026-05-06 16:27 37.54406 36.97892 2030 ft 143 kts 258°
2026-05-06 16:27 37.54158 36.96690 1826 ft 139 kts 259°
2026-05-06 16:27 37.53910 36.95520 1734 ft 132 kts 255°
2026-05-06 16:28 37.53721 36.94583 1733 ft 83 kts 257°
2026-05-06 16:28 37.53641 36.94202 1733 ft 9 kts 255°
2026-05-06 16:28 37.53628 36.94149 1733 ft 6 kts 241°
2026-05-06 16:28 37.53590 36.94128 1733 ft 6 kts 156°
2026-05-06 16:29 37.53582 36.94179 1733 ft 6 kts 76°
2026-05-06 16:29 37.53611 36.94227 1733 ft 7 kts 36°
2026-05-06 16:29 37.53648 36.94266 1733 ft 6 kts 54°
2026-05-06 16:29 37.53663 36.94319 1733 ft 7 kts 76°
2026-05-06 16:30 37.53682 36.94409 1733 ft 13 kts 74°
2026-05-06 16:30 37.53701 36.94495 1733 ft 16 kts 75°
2026-05-06 16:30 37.53744 36.94704 1733 ft 18 kts 76°
2026-05-06 16:30 37.53781 36.94874 1733 ft 21 kts 73°
2026-05-06 16:31 37.53822 36.95065 1733 ft 21 kts 76°
2026-05-06 16:31 37.53857 36.95242 1733 ft 21 kts 74°
2026-05-06 16:31 37.53899 36.95433 1733 ft 24 kts 75°
2026-05-06 16:31 37.53936 36.95606 1733 ft 14 kts 72°
2026-05-06 16:32 37.53960 36.95721 1733 ft 11 kts 77°
2026-05-06 16:32 37.53962 36.95802 1733 ft 9 kts 120°
2026-05-06 16:32 37.53909 36.95835 1733 ft 8 kts 167°
2026-05-06 16:32 37.53838 36.95858 1733 ft 11 kts 164°
2026-05-06 16:33 37.53777 36.95879 1733 ft 6 kts 171°
2026-05-06 16:33 37.53735 36.95890 1733 ft 4 kts 163°
2026-05-06 16:33 37.53727 36.95893 1733 ft 0 kts 163°
2026-05-06 16:34 37.53726 36.95894 1733 ft 0 kts 163°